Miles City, MT

6:01 PM MST on December 05, 2016 (GMT -0700)
Wiley

Weather History for KMLS - September, 2011

Change the Weather History Date:

Wednesday, September 14, 2011

  Actual Average Record
Temperature  
Mean Temperature 54 °F 61 °F  
Max Temperature 63 °F 75 °F 99 °F (1948)
Min Temperature 44 °F 47 °F 30 °F (1993)
Degree Days  
Heating Degree Days 11 6  
Month to date heating degree days 42 56  
Since 1 July heating degree days 42 90  
Cooling Degree Days 0 2  
Month to date cooling degree days 41 44  
Year to date cooling degree days 703 716  
Growing Degree Days 3 (Base 50)    
Moisture  
Dew Point 33 °F    
Average Humidity 48    
Maximum Humidity 70    
Minimum Humidity 25    
Precipitation  
Precipitation T in 0.04 in 0.89 in (2004)
Month to date precipitation T 0.49  
Year to date precipitation 17.50 10.25  
Sea Level Pressure  
Sea Level Pressure 30.32 in    
Wind  
Wind Speed 10 mph (East)    
Max Wind Speed 16 mph    
Max Gust Speed 22 mph    
Visibility 10 miles    
Events      
T = Trace of Precipitation, MM = Missing Value Source: NWS Daily Summary

Daily Weather History Graph

Daily Weather History Graph

Search for Another Location

Airport or City:

Trip Planner

Search our weather history database for the weather conditions in past years. The results will help you decide how hot, cold, wet, or windy it might be!

Date:

Astronomy

Sep. 14, 2011 Rise Set
Actual Time 6:39 AM MDT 7:17 PM MDT
Civil Twilight 6:09 AM MDT 7:47 PM MDT
Nautical Twilight 5:33 AM MDT 8:23 PM MDT
Astronomical Twilight 4:55 AM MDT 9:01 PM MDT
Moon 7:49 PM MDT (9/14) 9:06 AM MDT (9/14)
Length of Visible Light 13h 38m
Length of Day
12h 37m
Waning Gibbous, 95% of the Moon is Illuminated
Sep 14
Waning Gibbous
Sep 20
Last Quarter
Sep 27
New
Oct 3
First Quarter
Oct 11
Full

Hourly Weather History & Observations

Time (MDT) Temp. Windchill Dew Point Humidity Pressure Visibility Wind Dir Wind Speed Gust Speed Precip Events Conditions
12:53 AM 50.0 °F - 35.1 °F 57% 30.32 in 10.0 mi NE 15.0 mph - N/A   Overcast
1:53 AM 48.0 °F - 36.0 °F 63% 30.33 in 10.0 mi NE 15.0 mph - N/A   Overcast
2:53 AM 48.0 °F - 34.0 °F 58% 30.35 in 10.0 mi ENE 10.4 mph - N/A   Overcast
3:53 AM 46.4 °F 42.4 °F 33.8 °F 62% 30.36 in 10.0 mi NE 8.1 mph - N/A   Overcast
4:53 AM 45.0 °F 39.3 °F 35.1 °F 68% 30.38 in 10.0 mi NE 11.5 mph - 0.00 in   Overcast
5:53 AM 44.1 °F 38.6 °F 36.0 °F 73% 30.38 in 10.0 mi NE 10.4 mph - N/A   Overcast
6:53 AM 44.1 °F 39.0 °F 36.0 °F 73% 30.38 in 10.0 mi ENE 9.2 mph - 0.00 in   Overcast
7:53 AM 45.0 °F 40.1 °F 35.1 °F 68% 30.40 in 10.0 mi NE 9.2 mph - N/A   Partly Cloudy
8:53 AM 46.9 °F - 35.1 °F 63% 30.40 in 10.0 mi ENE 10.4 mph - N/A   Clear
9:53 AM 50.0 °F - 35.1 °F 57% 30.40 in 10.0 mi East 11.5 mph - N/A   Clear
10:53 AM 53.1 °F - 34.0 °F 48% 30.40 in 10.0 mi East 9.2 mph - N/A   Clear
11:53 AM 55.0 °F - 28.9 °F 37% 30.38 in 10.0 mi SE 10.4 mph - N/A   Clear
12:53 PM 57.0 °F - 30.0 °F 36% 30.36 in 10.0 mi East 4.6 mph - N/A   Clear
1:53 PM 60.1 °F - 25.0 °F 26% 30.33 in 10.0 mi SE 12.7 mph 17.3 mph N/A   Clear
2:53 PM 60.1 °F - 26.1 °F 27% 30.31 in 10.0 mi East 10.4 mph - N/A   Clear
3:53 PM 62.1 °F - 27.0 °F 26% 30.28 in 10.0 mi East 12.7 mph 18.4 mph N/A   Clear
4:53 PM 61.0 °F - 26.1 °F 26% 30.27 in 10.0 mi East 13.8 mph - N/A   Clear
5:53 PM 60.1 °F - 27.0 °F 28% 30.25 in 10.0 mi East 5.8 mph - N/A   Clear
6:53 PM 57.0 °F - 30.9 °F 37% 30.24 in 10.0 mi SSE 10.4 mph - N/A   Clear
7:53 PM 54.0 °F - 34.0 °F 47% 30.24 in 10.0 mi SSE 9.2 mph - N/A   Clear
8:53 PM 52.0 °F - 36.0 °F 54% 30.24 in 10.0 mi SSE 9.2 mph - N/A   Clear
9:53 PM 51.1 °F - 37.0 °F 59% 30.24 in 10.0 mi SSE 10.4 mph - N/A   Scattered Clouds
10:53 PM 51.1 °F - 37.9 °F 61% 30.21 in 10.0 mi SE 9.2 mph - N/A   Overcast
11:53 PM 50.0 °F - 37.9 °F 63% 30.20 in 10.0 mi SE 11.5 mph 18.4 mph N/A   Mostly Cloudy